Location: ??????????
(42.1626°N, 44.1160°E)
Time: 15:02:33
(UTC+00:00)

Resurs 01 Rocket - Pass Details

Date: 03 March 2021
Orbit: 635 x 643 km, 98.0° (Epoch: 14 April)

Event Time Altitude Azimuth Distance (km) Brightness Sun altitude
Exits shadow 17:35:08 19° 355° (N) 1,513 3.7 -29.9°
Drops below altitude 10° 17:36:26 10° 352° (N) 2,031 4.5 -30.1°
Sets 17:38:39 0° 350° (N) 2,945 5.4 -30.5°
